SCP
0 0 0 0 0 0 0 0 0 0 0 0 0 0 0 0 0 0 0 0 0 0 0 0 0 0 0 0 0 0 0 0 0 0 0 0 0 0 0 0 0 0 0 0 0 0 0 0 0
0 0 0 0 0 0 0 0 0 0 0 0 0 0 0 0 0 0 0 0 0 0 0 0 0 0 0 0 0 0 0 0 0 0 0 0 0 0 0 0 0 0 0 0 0 0 0 0 0
0 0 0 0 0 0 0 0 0 0 0 0 0 0 0 0 0 0 0 0 0 0 0 0 0 0 0 0 0 0 0 0 0 0 0 0 0 0 0 0 0 0 0 0 0 0 0 0 0
0 0 0 0 0 0 0 0 0 0 0 0 0 0 0 0 0 0 0 0 0 0 0 0 0 0 0 0 0 0 0 0 0 0 0 0 0 0 0 0 0 0 0 0 0 0 0 0 0
0 0 0 0 0 0 0 0 0 0 0 0 0 0 0 0 0 0 0 0 0 0 0 0 0 0 0 0 0 0 0 0 0 0 0 0 0 0 0 0 0 0 0 0 0 0 0 0 0
0 0 0 0 0 0 0 0 0 0 0 0 0 0 0 0 0 0 0 0 0 0 0 0 0 0 0 0 0 0 0 0 0 0 0 0 0 0 0 0 0 0 0 0 0 0 0 0 0
0 0 0 0 0 0 0 0 0 0 0 0 0 0 0 0 0 0 0 0 0 0 0 0 0 0 0 0 0 0 0 0 0 0 0 0 0 0 0 0 0 0 0 0 0 0 0 0 0
0 0 0 0 0 0 0 0 0 0 0 0 0 0 0 0 0 0 0 0 0 0 0 0 0 0 0 0 0 0 0 0 0 0 0 0 0 0 0 0 0 0 0 0 0 0 0 0 0
0 0 0 0 0 0 0 0 0 0 0 0 0 0 0 0 0 0 0 0 0 0 0 0 0 0 0 0 0 0 0 0 0 0 0 0 0 0 0 0 0 0 0 0 0 0 0 0 0
0 0 0 0 0 0 0 0 0 0 0 0 0 0 0 0 0 0 0 0 0 0 0 0 0 0 0 0 0 0 0 0 0 0 0 0 0 0 0 0 0 0 0 0 0 0 0 0 0
0 0 0 0 0 0 0 0 0 0 0 0 0 0 0 0 0 0 0 0 0 0 0 0 0 0 0 0 0 0 0 0 0 0 0 0 0 0 0 0 0 0 0 0 0 0 0 0 0
0 0 0 0 0 0 0 0 0 0 0 0 0 0 0 0 0 0 0 0 0 0 0 0 0 0 0 0 0 0 0 0 0 0 0 0 0 0 0 0 0 0 0 0 0 0 0 0 0
0 0 0 0 0 0 0 0 0 0 0 0 0 0 0 0 0 0 0 0 0 0 0 0 0 0 0 0 0 0 0 0 0 0 0 0 0 0 0 0 0 0 0 0 0 0 0 0 0
0 0 0 0 0 0 0 0 0 0 0 0 0 0 0 0 0 0 0 0 0 0 0 0 0 0 0 0 0 0 0 0 0 0 0 0 0 0 0 -0 -0 -0 0 0 0 0 0 0 0
0 0 0 0 0 0 0 0 0 0 0 0 0 0 0 0 0 0 0 0 0 0 0 0 0 0 0 0 0 0 0 0 0 0 0 0 0 0 0 -0 -0 -0 0 0 0 0 0 0 0
0 0 0 0 0 0 0 0 0 0 0 0 0 0 0 0 0 0 0 0 0 0 0 0 0 0 0 0 0 0 0 0 0 0 0 0 0 0 0 0 0 0 0 0 0 0 0 0 0
0 0 0 0 0 0 0 0 0 0 0 0 0 0 0 0 0 0 0 0 0 0 0 0 0 0 0 0 0 0 0 0 0 0 0 0 0 0 0 0 0 0 0 0 0 0 0 0 0
0 0 0 0 0 0 0 0 0 0 0 0 0 0 0 0 0 0 0 0 0 0 0 0 0 0 0 0 0 0 0 0 0 0 0 0 0 0 0 0 0 0 0 0 0 0 0 0 0
0 0 0 0 0 0 0 0 0 0 0 0 0 0 0 0 0 0 0 0 0 0 0 0 0 0 0 0 0 0 0 0 0 0 0 0 0 0 0 0 0 0 0 0 0 0 0 0 0
0 0 0 0 0 0 0 0 0 0 0 0 0 0 0 0 0 0 0 0 0 0 0 0 0 0 0 0 0 0 0 0 0 0 0 0 0 0 0 0 0 0 0 0 0 0 0 0 0
0 0 0 0 0 0 0 0 0 0 0 0 0 0 0 0 0 0 0 0 0 0 0 0 0 0 0 0 0 0 0 0 0 0 0 0 0 0 0 0 0 0 0 0 0 0 0 0 0
0 0 0 0 0 0 0 0 0 0 0 0 0 0 0 0 0 0 0 0 0 0 0 0 0 0 0 0 0 0 0 0 0 0 0 0 0 0 0 0 0 0 0 0 0 0 0 0 0
0 0 0 0 0 0 0 0 0 0 0 0 0 0 0 0 0 0 0 0 0 0 0 0 0 0 0 0 0 0 0 0 0 0 0 0 0 0 0 0 0 0 0 0 0 0 0 0 0
0 0 0 0 0 0 0 0 0 0 0 0 0 0 0 0 0 0 0 0 0 0 0 0 0 0 0 0 0 0 0 0 0 0 0 0 0 0 0 0 0 0 0 0 0 0 0 0 0
0 0 0 0 0 0 0 0 0 0 0 0 0 0 0 0 0 0 0 0 0 0 0 0 0 0 0 0 0 0 0 0 0 0 0 0 0 0 0 0 0 0 0 0 0 0 0 0 0
0 0 0 0 0 0 0 0 0 0 0 0 0 0 0 0 0 0 0 0 0 0 0 0 0 0 0 0 0 0 0 0 0 0 0 0 0 0 0 0 0 0 0 0 0 0 0 0 0
0 0 0 0 0 0 0 0 0 0 0 0 0 0 0 0 0 0 0 0 0 0 0 0 0 0 0 0 0 0 0 0 0 0 0 0 0 0 0 0 0 0 0 0 0 0 0 0 0
0 0 0 0 0 0 0 0 0 0 0 0 0 0 0 0 0 0 0 0 0 0 0 0 0 0 0 0 0 0 0 0 0 0 0 0 0 0 0 0 0 0 0 0 0 0 0 0 0
0 0 0 0 0 0 0 0 0 0 0 0 0 0 0 0 0 0 0 0 0 0 0 0 0 0 0 0 0 0 0 0 0 0 0 0 0 0 0 0 0 0 0 0 0 0 0 0 0
0 0 0 0 0 0 0 0 0 0 0 0 0 0 0 0 0 0 0 0 0 0 0 0 0 0 0 0 0 0 0 0 0 0 0 0 0 0 0 0 0 0 0 0 0 0 0 0 0
Wind_Speed
1 1 2 3 4 4 1 1 1 1 3 4 8 9 8 6 5 5 2 7 7 6 5 6 10 10 11 12 12 12 12 12 12 12 12 12 12 12 11 11 11 10 10 10 9 9 9 9 9
1 1 3 4 4 2 1 1 1 1 6 6 8 8 8 6 5 6 4 7 8 6 5 7 11 11 11 11 12 12 12 12 12 12 12 12 11 11 11 10 10 9 9 9 9 9 9 9 9
0 1 3 3 2 2 1 1 2 3 5 5 6 6 6 4 4 3 5 9 7 6 5 7 11 11 11 11 12 12 12 12 12 12 12 11 11 11 10 10 9 9 8 8 8 8 8 8 8
2 3 4 4 1 1 2 2 1 4 5 6 6 6 4 3 3 5 8 9 8 6 5 7 11 11 11 11 11 12 12 12 12 12 11 11 11 11 10 9 9 8 8 8 7 7 7 8 8
3 4 4 2 0 1 0 2 2 4 4 5 7 6 4 3 7 10 9 8 8 6 5 6 10 10 10 11 11 11 11 11 11 11 11 11 10 10 9 9 9 8 8 8 7 7 7 8 8
4 4 3 1 0 1 1 2 5 6 5 6 7 6 3 3 7 8 8 7 7 6 5 5 9 10 10 10 11 11 10 10 10 10 10 10 10 9 9 8 8 7 7 7 6 6 6 7 8
4 3 2 1 1 1 1 2 4 5 5 3 4 6 4 3 5 7 8 7 6 6 5 3 4 5 8 9 10 10 10 10 9 9 9 8 8 8 7 7 7 6 6 6 5 5 5 6 8
4 4 2 0 1 0 0 3 3 5 4 3 4 7 5 5 6 7 7 6 5 4 4 3 3 3 3 4 8 9 9 8 7 7 7 6 6 6 6 5 5 5 5 5 4 4 5 6 6
4 5 1 1 2 0 1 3 3 4 5 4 4 4 6 9 8 8 6 5 4 4 3 3 3 2 2 3 5 6 6 6 5 4 5 4 2 2 2 2 3 4 4 3 3 4 5 6 6
4 3 2 2 3 2 1 2 3 4 5 4 5 6 9 9 9 9 7 6 5 4 3 3 4 3 3 3 2 1 1 2 1 1 2 1 1 1 1 1 1 2 2 2 3 3 4 5 3
3 3 2 1 2 3 2 2 2 6 3 3 7 9 9 8 7 8 7 6 5 5 4 4 4 3 3 2 2 1 1 1 1 1 2 2 1 1 1 1 1 1 2 2 3 3 2 2 2
2 1 2 2 2 3 2 2 3 3 3 5 9 11 10 9 8 7 7 6 5 5 4 4 4 3 3 3 2 2 1 1 1 1 2 2 2 1 1 1 0 1 1 1 1 1 2 3 3
2 1 2 3 4 4 4 3 3 1 3 7 9 9 10 9 7 5 5 5 5 5 4 4 4 4 3 2 2 2 1 1 1 1 1 3 3 2 1 1 1 1 1 1 1 2 3 3 3
2 2 2 2 3 2 4 2 3 2 5 8 9 8 8 9 8 6 6 5 5 5 5 4 4 3 3 2 1 1 1 1 1 1 1 3 3 3 2 1 1 1 1 2 2 3 3 3 3
2 2 1 1 2 2 4 1 2 4 6 8 8 7 7 7 7 8 8 7 6 6 5 4 5 3 3 3 2 2 1 2 1 1 2 3 3 3 3 2 1 1 2 3 3 4 3 3 3
2 2 0 3 3 2 4 2 4 4 6 6 6 7 7 6 7 7 8 7 6 5 5 4 4 4 3 3 2 2 2 2 1 2 2 3 3 4 3 2 2 2 2 2 3 3 3 3 3
1 1 2 2 3 3 4 4 5 5 6 6 5 6 7 6 6 6 7 8 7 7 6 4 4 4 3 3 3 2 2 2 2 2 2 2 3 3 3 2 2 2 3 2 3 3 3 3 2
3 3 2 3 3 4 4 4 5 6 7 7 6 6 6 7 7 7 8 8 7 6 6 5 4 4 4 3 3 2 3 2 2 2 2 3 2 3 3 2 2 3 3 2 2 3 2 2 2
3 3 2 4 3 3 4 5 6 6 5 6 5 6 6 7 6 6 7 7 6 6 5 5 5 4 4 3 2 2 1 1 1 1 2 3 3 3 3 3 3 3 3 2 3 3 3 2 2
2 2 3 2 2 2 2 4 5 6 8 8 8 7 7 6 4 5 6 7 7 7 6 5 6 5 5 3 2 2 2 1 1 1 2 2 3 3 3 4 3 3 3 4 3 3 2 1 1
3 4 5 3 1 1 1 3 3 4 4 6 7 7 6 9 9 8 7 7 7 7 8 7 6 6 5 4 3 3 3 2 2 2 1 1 3 3 3 3 3 3 3 3 3 3 3 2 1
3 4 4 4 2 3 2 2 5 4 4 7 7 7 7 7 8 8 8 8 8 8 6 6 6 6 5 5 5 5 3 2 2 1 1 1 2 3 3 4 4 3 3 3 2 3 2 3 1
4 3 1 2 2 1 2 3 6 2 5 8 9 9 9 9 9 10 10 9 8 7 6 6 6 6 5 6 6 5 4 2 2 1 2 1 1 2 2 3 3 3 3 3 3 3 3 2 2
1 4 5 4 3 3 5 4 6 5 8 7 9 9 9 9 9 9 9 8 7 7 6 6 6 5 5 6 6 6 6 4 4 2 2 1 1 1 1 3 3 3 3 3 3 3 3 2 3
4 5 3 3 2 5 3 3 7 6 6 8 10 10 10 9 9 9 9 8 8 8 8 7 7 6 5 6 6 6 7 6 6 4 4 3 1 1 1 2 2 2 2 3 3 3 3 3 3
3 7 5 4 4 4 2 4 6 5 5 5 6 8 9 8 9 9 10 10 9 9 8 8 7 6 6 6 6 6 6 5 4 4 4 4 3 2 2 2 2 2 3 3 3 3 2 2 3
3 3 6 5 1 1 3 4 4 2 1 2 3 5 8 9 9 9 9 10 10 9 9 9 8 6 6 7 6 5 6 5 5 4 4 3 3 3 3 3 3 3 3 3 4 3 2 3 2
5 5 4 3 2 2 4 4 4 4 5 4 4 6 7 7 8 8 9 10 9 9 8 8 8 7 6 6 6 6 6 6 6 5 4 4 3 3 4 3 3 3 3 4 3 3 2 3 2
1 1 3 3 4 4 3 6 6 7 7 6 6 6 7 8 9 9 9 9 8 8 7 7 7 6 6 6 6 6 5 5 5 5 5 4 3 4 4 4 4 4 3 3 4 3 3 3 2
3 3 4 3 3 3 3 7 5 5 5 5 6 6 7 8 7 8 8 8 8 8 8 7 7 7 6 6 6 6 5 5 5 5 4 4 4 4 4 4 4 3 3 3 4 4 3 3 3
Wind_Direction
187 83 83 59 56 52 26 290 183 55 65 58 73 80 80 63 78 116 142 131 129 128 124 118 110 107 108 109 108 107 104 103 101 101 98 99 98 96 96 94 92 89 86 84 80 79 78 74 69
102 101 64 57 77 74 344 302 76 81 133 120 79 76 77 72 78 103 123 136 133 127 123 120 116 111 109 110 109 108 107 106 105 104 102 100 99 97 96 96 93 90 87 83 80 78 75 70 66
151 117 85 69 85 151 189 222 119 82 94 94 82 57 69 88 96 104 141 139 126 121 122 127 121 117 111 110 110 109 108 107 106 104 104 101 100 99 96 94 92 89 87 85 81 77 71 66 61
77 50 54 70 70 250 186 194 151 102 66 60 95 71 61 59 104 122 134 130 123 122 126 128 122 118 114 112 112 112 110 109 108 106 105 104 102 100 99 96 92 90 88 86 84 79 71 64 60
70 76 62 54 334 302 187 148 101 85 70 73 90 89 65 36 104 120 126 127 126 124 123 129 125 124 121 118 117 115 114 113 111 109 108 106 103 101 99 95 91 90 89 86 83 80 73 66 62
61 69 82 90 247 312 48 83 88 82 89 88 89 98 91 113 117 126 128 129 129 128 125 128 129 128 127 125 124 121 118 116 114 113 111 109 107 103 100 95 90 89 88 88 84 79 71 65 66
104 93 115 167 173 71 100 80 89 99 92 81 103 103 119 134 134 131 127 124 120 120 121 110 120 126 132 132 131 129 126 125 123 122 120 117 112 108 103 98 94 91 88 87 83 74 67 66 67
125 98 64 28 111 45 26 84 88 93 92 82 93 126 153 171 143 124 118 117 116 117 123 123 117 114 118 128 137 137 135 134 133 133 131 125 116 108 106 103 101 97 89 82 76 69 65 59 63
83 80 96 202 139 292 4 90 77 71 89 64 62 118 145 143 132 121 115 113 124 134 137 141 137 137 140 145 147 144 144 140 138 140 145 126 95 86 96 123 117 105 94 81 68 65 58 55 55
85 112 200 196 155 144 39 82 125 98 78 69 67 84 119 132 134 135 138 141 146 153 164 159 156 159 158 157 127 125 135 132 142 162 161 137 148 190 165 135 127 100 80 53 47 48 44 44 44
123 158 174 104 125 121 91 57 78 120 106 159 148 143 142 138 139 147 152 154 158 161 158 158 166 161 155 142 140 133 125 133 162 180 170 155 148 147 117 82 24 18 40 36 35 34 40 49 55
126 151 139 140 115 104 102 86 58 106 174 166 155 153 150 151 156 159 157 161 156 151 154 154 165 159 158 144 147 154 154 149 170 178 163 143 138 137 145 134 87 41 45 55 55 63 63 68 75
132 162 118 127 99 99 94 91 94 90 133 136 143 148 156 159 164 169 161 158 151 153 157 158 157 156 158 146 157 149 163 162 172 162 161 145 140 146 144 132 110 92 84 95 84 87 87 86 87
176 149 129 138 118 115 112 105 97 158 142 141 149 159 167 168 170 167 162 164 165 162 161 158 148 146 145 142 141 141 152 140 123 118 138 132 133 131 127 117 107 96 95 99 99 95 94 86 86
126 96 62 208 157 164 122 49 172 181 154 156 165 168 171 175 170 174 176 172 170 165 157 158 154 141 132 130 137 128 126 116 102 99 119 119 121 124 123 116 106 100 91 90 88 81 77 81 80
84 83 215 250 180 183 130 212 232 182 156 163 174 175 178 185 186 184 178 169 164 156 155 164 151 139 134 130 128 116 114 113 98 82 95 108 117 119 113 103 98 104 96 92 89 85 78 72 72
37 165 223 261 201 166 149 206 227 202 172 175 180 185 184 187 190 189 180 173 169 167 163 161 145 143 136 122 115 105 96 92 90 79 83 93 98 105 105 99 102 101 89 85 97 85 99 95 84
207 199 211 225 217 164 176 209 214 206 189 191 191 188 188 190 195 185 178 175 171 169 162 159 149 141 128 111 94 80 73 64 68 77 82 87 90 104 106 104 101 100 93 80 88 93 86 101 102
182 185 222 237 217 166 194 211 217 207 201 197 194 194 196 200 200 181 173 169 164 163 159 158 151 147 132 117 112 107 100 72 65 86 93 91 96 103 106 106 96 98 103 108 109 103 82 66 89
207 205 245 268 231 160 205 238 226 209 204 200 195 198 198 196 189 181 171 166 168 170 169 164 161 158 151 145 141 139 131 116 105 71 75 83 97 107 119 119 117 114 106 95 94 100 95 65 82
242 208 216 212 302 328 115 302 255 235 212 203 200 197 192 187 186 183 175 173 170 173 176 175 174 163 156 143 119 99 72 55 44 43 45 53 93 99 111 116 120 128 120 121 116 121 121 114 40
244 233 204 189 167 258 181 257 266 234 223 210 209 204 199 192 184 182 179 176 178 182 176 171 172 166 162 149 143 143 139 143 179 171 126 66 88 101 111 119 119 126 122 125 131 123 126 125 108
230 246 215 199 171 268 248 202 273 226 230 225 214 208 202 195 186 185 184 178 175 173 170 171 167 168 168 159 156 151 145 154 155 133 109 80 67 89 116 127 124 124 125 127 118 108 106 119 132
176 40 24 39 71 265 237 196 258 223 217 218 216 211 203 195 188 185 184 169 166 165 162 168 166 173 171 163 162 160 158 157 149 151 145 132 67 56 89 117 121 125 127 130 125 117 114 113 109
83 81 32 0 351 257 235 202 246 234 218 207 206 207 199 188 183 181 178 171 169 170 171 171 170 177 176 169 169 170 169 168 171 174 170 160 144 144 150 112 117 123 134 136 125 113 109 116 114
191 146 162 198 223 270 267 225 253 245 223 206 200 195 187 184 183 184 182 178 176 175 174 172 172 178 179 177 177 177 173 170 176 178 171 172 171 183 168 140 133 131 129 122 115 108 111 109 109
171 188 177 154 216 271 273 276 300 308 283 200 179 174 185 188 187 186 182 180 177 176 177 176 174 179 184 180 175 175 174 169 171 173 168 172 177 173 157 145 134 128 126 123 118 114 122 114 108
177 170 109 126 174 249 277 259 238 234 236 230 199 195 196 189 186 185 183 183 182 179 177 174 172 179 182 176 175 174 174 171 168 166 171 172 169 158 149 147 141 136 135 132 123 121 126 114 111
263 145 129 139 172 171 242 265 230 211 218 214 213 207 198 189 187 187 185 182 178 172 169 173 174 174 179 177 174 169 173 171 163 168 178 174 167 162 156 155 149 143 140 134 126 126 116 115 105
191 190 156 167 228 190 205 263 265 209 207 202 212 209 197 187 186 183 177 172 171 173 174 177 177 177 181 177 169 167 167 162 160 170 175 168 165 164 156 148 145 145 137 134 132 134 128 124 117